| time (UTC) | temp C | wind direction | speed KPH | gust KPH | rain 1hr cm | rain 24hr cm | rain mn cm | humidity % | barometer mb |
| 20260906110019 | 20 | 0.0 | 0.0 | 0.00 | 0.23 | 0.00 | 94 | 1013.7 | |
| 20260906105016 | 21 | 90 | 1.6 | 3.2 | 0.00 | 0.23 | 0.00 | 95 | 1013.6 |
| 20260906104113 | 21 | 90 | 0.0 | 3.2 | 0.00 | 0.23 | 0.00 | 95 | 1013.6 |
| 20260906103109 | 20 | 90 | 1.6 | 3.2 | 0.00 | 0.23 | 0.00 | 93 | 1013.6 |
| 20260906102105 | 20 | 0.0 | 0.0 | 0.00 | 0.23 | 0.00 | 92 | 1013.7 | |
| 20260906101102 | 20 | 0.0 | 0.0 | 0.00 | 0.23 | 0.00 | 92 | 1013.3 | |
| 20260906100119 | 20 | 0.0 | 0.0 | 0.00 | 0.23 | 0.00 | 92 | 1013.2 | |
| 20260906095055 | 20 | 0.0 | 0.0 | 0.00 | 0.23 | 0.00 | 93 | 1013.2 | |
| 20260906094051 | 20 | 90 | 1.6 | 3.2 | 0.00 | 0.23 | 0.00 | 91 | 1013.0 |
| 20260906093108 | 20 | 74 | 1.6 | 3.2 | 0.00 | 0.23 | 0.00 | 90 | 1013.0 |
| 20260906092045 | 20 | 0.0 | 0.0 | 0.00 | 0.23 | 0.00 | 91 | 1013.0 | |
| 20260906091041 | 20 | 0.0 | 0.0 | 0.00 | 0.23 | 0.00 | 90 | 1012.8 | |
| 20260906090038 | 20 | 0.0 | 0.0 | 0.00 | 0.23 | 0.00 | 90 | 1012.9 | |
| 20260906085035 | 21 | 0.0 | 0.0 | 0.00 | 0.23 | 0.00 | 90 | 1012.7 | |
| 20260906084032 | 21 | 0.0 | 0.0 | 0.00 | 0.23 | 0.00 | 90 | 1012.8 | |
| 20260906083028 | 21 | 0.0 | 0.0 | 0.00 | 0.23 | 0.00 | 90 | 1012.6 | |
| 20260906082045 | 21 | 0.0 | 1.6 | 0.00 | 0.23 | 0.00 | 89 | 1012.5 | |
| 20260906081021 | 21 | 79 | 1.6 | 3.2 | 0.00 | 0.23 | 0.00 | 90 | 1012.3 |
| 20260906080038 | 21 | 0 | 0.0 | 1.6 | 0.00 | 0.23 | 0.00 | 91 | 1012.3 |
| 20260906075135 | 21 | 45 | 0.0 | 1.6 | 0.00 | 0.23 | 0.00 | 92 | 1012.3 |
| 20260906074111 | 21 | 0 | 1.6 | 3.2 | 0.00 | 0.23 | 0.00 | 93 | 1012.3 |
| 20260906073108 | 21 | 45 | 3.2 | 4.8 | 0.00 | 0.23 | 0.00 | 92 | 1012.3 |
| 20260906072104 | 21 | 0 | 0.0 | 1.6 | 0.00 | 0.23 | 0.00 | 92 | 1012.5 |
| 20260906071101 | 21 | 0.0 | 0.0 | 0.00 | 0.23 | 0.00 | 92 | 1012.5 | |
| 20260906070057 | 21 | 0.0 | 0.0 | 0.00 | 0.23 | 0.00 | 91 | 1012.8 | |
| 20260906065053 | 21 | 0.0 | 0.0 | 0.00 | 0.23 | 0.00 | 90 | 1012.9 | |
| 20260906064050 | 21 | 72 | 0.0 | 1.6 | 0.00 | 0.23 | 0.00 | 91 | 1012.9 |
| 20260906063107 | 21 | 270 | 0.0 | 1.6 | 0.00 | 0.23 | 0.00 | 90 | 1013.0 |
| 20260906062103 | 21 | 0.0 | 0.0 | 0.00 | 0.23 | 0.00 | 92 | 1012.9 | |
| 20260906061040 | 21 | 0.0 | 0.0 | 0.00 | 0.23 | 0.00 | 92 | 1012.9 | |
| 20260906060036 | 21 | 0.0 | 0.0 | 0.00 | 0.23 | 0.00 | 90 | 1013.1 | |
| 20260906055033 | 21 | 0.0 | 1.6 | 0.00 | 0.23 | 0.00 | 90 | 1012.9 | |
| 20260906054030 | 21 | 90 | 1.6 | 1.6 | 0.00 | 0.23 | 0.00 | 89 | 1012.8 |
| 20260906053026 | 22 | 0.0 | 0.0 | 0.00 | 0.23 | 0.00 | 90 | 1012.8 | |
| 20260906052023 | 22 | 0.0 | 0.0 | 0.00 | 0.23 | 0.00 | 89 | 1012.8 | |
| 20260906051019 | 22 | 0.0 | 0.0 | 0.00 | 0.23 | 0.00 | 88 | 1013.0 | |
| 20260906050016 | 22 | 0.0 | 0.0 | 0.00 | 0.23 | 0.00 | 87 | 1013.0 | |
| 20260906045113 | 22 | 0.0 | 0.0 | 0.00 | 0.23 | 0.00 | 87 | 1013.1 | |
| 20260906044110 | 22 | 0.0 | 0.0 | 0.00 | 0.23 | 0.00 | 88 | 1013.1 | |
| 20260906043105 | 22 | 0.0 | 0.0 | 0.00 | 0.23 | 0.00 | 88 | 1013.1 | |
| 20260906042102 | 22 | 0.0 | 0.0 | 0.00 | 0.23 | 0.00 | 87 | 1013.3 | |
| 20260906041058 | 22 | 0.0 | 0.0 | 0.00 | 0.23 | 0.00 | 86 | 1013.4 | |
| 20260906040055 | 22 | 0.0 | 0.0 | 0.00 | 0.23 | 0.00 | 86 | 1013.3 | |
| 20260906035052 | 22 | 0.0 | 0.0 | 0.00 | 0.23 | 0.23 | 83 | 1013.3 | |
| 20260906034108 | 22 | 0.0 | 0.0 | 0.00 | 0.23 | 0.23 | 82 | 1013.3 | |
| 20260906033105 | 22 | 0.0 | 0.0 | 0.00 | 0.23 | 0.23 | 80 | 1013.4 | |
| 20260906032101 | 22 | 0.0 | 0.0 | 0.00 | 0.23 | 0.23 | 77 | 1013.3 | |
| 20260906031038 | 22 | 0.0 | 0.0 | 0.00 | 0.23 | 0.23 | 77 | 1013.2 | |
| 20260906030035 | 22 | 0.0 | 0.0 | 0.00 | 0.23 | 0.23 | 77 | 1013.2 | |
| 20260906025051 | 22 | 0.0 | 0.0 | 0.00 | 0.23 | 0.23 | 76 | 1013.2 | |
| 20260906024028 | 22 | 0.0 | 0.0 | 0.00 | 0.23 | 0.23 | 77 | 1013.2 | |
| 20260906023025 | 22 | 0.0 | 0.0 | 0.00 | 0.23 | 0.23 | 75 | 1013.3 | |
| 20260906022021 | 22 | 0.0 | 0.0 | 0.00 | 0.23 | 0.23 | 73 | 1013.1 | |
| 20260906021017 | 23 | 0.0 | 0.0 | 0.00 | 0.23 | 0.23 | 71 | 1013.1 | |
| 20260906020114 | 23 | 0.0 | 0.0 | 0.00 | 0.23 | 0.23 | 69 | 1013.0 | |
| 20260906015111 | 23 | 0.0 | 0.0 | 0.00 | 0.23 | 0.23 | 68 | 1013.0 | |
| 20260906014108 | 23 | 0.0 | 0.0 | 0.00 | 0.23 | 0.23 | 67 | 1013.0 | |
| 20260906013104 | 23 | 0.0 | 0.0 | 0.00 | 0.23 | 0.23 | 67 | 1013.0 | |
| 20260906012121 | 23 | 0.0 | 0.0 | 0.00 | 0.23 | 0.23 | 66 | 1012.7 | |
| 20260906011058 | 23 | 0.0 | 0.0 | 0.00 | 0.23 | 0.23 | 66 | 1012.7 | |
| 20260906010054 | 23 | 0.0 | 0.0 | 0.00 | 0.23 | 0.23 | 65 | 1012.7 | |
| 20260906005051 | 23 | 0.0 | 0.0 | 0.00 | 0.23 | 0.23 | 65 | 1012.6 | |
| 20260906004048 | 23 | 0.0 | 0.0 | 0.00 | 0.23 | 0.23 | 65 | 1012.5 | |
| 20260906003044 | 24 | 0.0 | 0.0 | 0.00 | 0.23 | 0.23 | 65 | 1012.2 | |
| 20260906002041 | 24 | 0.0 | 0.0 | 0.00 | 0.23 | 0.23 | 65 | 1012.1 | |
| 20260906001037 | 24 | 0.0 | 0.0 | 0.00 | 0.23 | 0.23 | 63 | 1012.1 | |
| 20260906000034 | 25 | 0.0 | 0.0 | 0.00 | 0.23 | 0.23 | 63 | 1012.0 | |
| 20260905235030 | 25 | 0.0 | 0.0 | 0.00 | 0.23 | 0.23 | 62 | 1012.1 | |
| 20260905234027 | 25 | 0.0 | 0.0 | 0.00 | 0.23 | 0.23 | 62 | 1012.0 | |
| 20260905233023 | 25 | 0.0 | 0.0 | 0.00 | 0.23 | 0.23 | 61 | 1012.1 | |
| 20260905232020 | 25 | 0.0 | 0.0 | 0.00 | 0.23 | 0.23 | 60 | 1012.1 | |
| 20260905231017 | 25 | 0.0 | 0.0 | 0.00 | 0.23 | 0.23 | 60 | 1011.8 | |
| 20260905230113 | 25 | 0.0 | 0.0 | 0.00 | 0.23 | 0.23 | 60 | 1011.8 | |
| 20260905225110 | 25 | 0.0 | 0.0 | 0.00 | 0.23 | 0.23 | 59 | 1012.1 | |
| 20260905224106 | 25 | 0.0 | 0.0 | 0.00 | 0.23 | 0.23 | 59 | 1012.1 | |
| 20260905223103 | 25 | 0.0 | 0.0 | 0.00 | 0.23 | 0.23 | 59 | 1012.0 | |
| 20260905222100 | 25 | 0.0 | 0.0 | 0.00 | 0.23 | 0.23 | 59 | 1012.1 | |
| 20260905221056 | 25 | 0.0 | 0.0 | 0.00 | 0.23 | 0.23 | 59 | 1012.0 | |
| 20260905220053 | 25 | 0.0 | 0.0 | 0.00 | 0.23 | 0.23 | 60 | 1012.1 | |
| 20260905215050 | 25 | 0.0 | 0.0 | 0.00 | 0.23 | 0.23 | 59 | 1012.2 | |
| 20260905214046 | 25 | 0.0 | 0.0 | 0.00 | 0.23 | 0.23 | 61 | 1012.2 | |
| 20260905213102 | 25 | 0.0 | 0.0 | 0.00 | 0.23 | 0.23 | 61 | 1012.2 | |
| 20260905212039 | 24 | 0.0 | 0.0 | 0.00 | 0.23 | 0.23 | 61 | 1012.4 | |
| 20260905211035 | 24 | 270 | 0.0 | 1.6 | 0.00 | 0.23 | 0.23 | 62 | 1012.6 |
| 20260905210032 | 24 | 0.0 | 0.0 | 0.00 | 0.23 | 0.23 | 63 | 1012.5 | |
| 20260905205029 | 24 | 0.0 | 0.0 | 0.00 | 0.23 | 0.23 | 63 | 1012.5 | |
| 20260905204025 | 23 | 0.0 | 1.6 | 0.00 | 0.23 | 0.23 | 63 | 1012.5 | |
| 20260905203022 | 23 | 270 | 1.6 | 1.6 | 0.00 | 0.23 | 0.23 | 64 | 1012.6 |
| 20260905202038 | 23 | 270 | 0.0 | 1.6 | 0.00 | 0.23 | 0.23 | 65 | 1012.5 |
| 20260905201015 | 24 | 0.0 | 0.0 | 0.00 | 0.23 | 0.23 | 66 | 1012.6 | |
| 20260905200112 | 24 | 0.0 | 0.0 | 0.00 | 0.23 | 0.23 | 70 | 1012.3 | |
| 20260905195129 | 23 | 0.0 | 0.0 | 0.00 | 0.23 | 0.23 | 75 | 1012.4 | |
| 20260905194105 | 23 | 0.0 | 0.0 | 0.00 | 0.23 | 0.23 | 78 | 1012.6 | |
| 20260905193122 | 23 | 0.0 | 0.0 | 0.00 | 0.23 | 0.23 | 80 | 1013.0 | |
| 20260905192058 | 23 | 120 | 1.6 | 3.2 | 0.00 | 0.23 | 0.23 | 80 | 1013.1 |
| 20260905191054 | 22 | 35 | 1.6 | 4.8 | 0.00 | 0.23 | 0.23 | 74 | 1013.1 |
| 20260905190051 | 22 | 270 | 0.0 | 3.2 | 0.13 | 0.23 | 0.23 | 70 | 1012.1 |
| 20260905185048 | 22 | 0.0 | 0.0 | 0.23 | 0.23 | 0.23 | 69 | 1011.3 | |
| 20260905184104 | 22 | 90 | 0.0 | 1.6 | 0.23 | 0.23 | 0.23 | 67 | 1011.7 |
| 20260905183040 | 22 | 270 | 0.0 | 1.6 | 0.23 | 0.23 | 0.23 | 67 | 1012.7 |
| 20260905182037 | 23 | 252 | 0.0 | 1.6 | 0.23 | 0.23 | 0.23 | 66 | 1013.2 |
| 20260905181034 | 24 | 308 | 4.8 | 14.5 | 0.23 | 0.23 | 0.23 | 62 | 1012.9 |
| 20260905180030 | 26 | 290 | 11.3 | 17.7 | 0.13 | 0.13 | 0.13 | 54 | 1013.5 |
| 20260905175147 | 30 | 317 | 9.7 | 17.7 | 0.00 | 0.00 | 0.00 | 47 | 1013.2 |
| 20260905174104 | 31 | 8 | 3.2 | 4.8 | 0.00 | 0.00 | 0.00 | 48 | 1012.8 |
| 20260905173020 | 32 | 351 | 3.2 | 4.8 | 0.00 | 0.00 | 0.00 | 45 | 1013.0 |
| 20260905172017 | 32 | 24 | 4.8 | 6.4 | 0.00 | 0.00 | 0.00 | 45 | 1013.4 |
| 20260905171114 | 33 | 319 | 3.2 | 6.4 | 0.00 | 0.00 | 0.00 | 36 | 1013.5 |
| 20260905170130 | 33 | 287 | 3.2 | 6.4 | 0.00 | 0.00 | 0.00 | 38 | 1013.8 |
| 20260905165107 | 33 | 342 | 1.6 | 4.8 | 0.00 | 0.00 | 0.00 | 37 | 1013.8 |
| 20260905164103 | 33 | 270 | 1.6 | 4.8 | 0.00 | 0.00 | 0.00 | 37 | 1013.9 |
| 20260905163120 | 33 | 270 | 1.6 | 4.8 | 0.00 | 0.00 | 0.00 | 42 | 1014.0 |
| 20260905162056 | 33 | 270 | 1.6 | 3.2 | 0.00 | 0.00 | 0.00 | 38 | 1014.0 |
| 20260905161053 | 33 | 90 | 0.0 | 3.2 | 0.00 | 0.00 | 0.00 | 45 | 1014.0 |
| 20260905160049 | 32 | 270 | 1.6 | 4.8 | 0.00 | 0.00 | 0.00 | 47 | 1014.2 |
| 20260905155126 | 31 | 270 | 0.0 | 3.2 | 0.00 | 0.00 | 0.00 | 53 | 1014.3 |
| 20260905154043 | 31 | 270 | 1.6 | 3.2 | 0.00 | 0.00 | 0.00 | 53 | 1014.2 |
| 20260905153039 | 30 | 280 | 1.6 | 4.8 | 0.00 | 0.00 | 0.00 | 51 | 1014.3 |
| 20260905152036 | 30 | 0.0 | 0.0 | 0.00 | 0.00 | 0.00 | 54 | 1014.2 | |
| 20260905151032 | 29 | 0.0 | 0.0 | 0.00 | 0.00 | 0.00 | 55 | 1014.4 | |
| 20260905150029 | 28 | 0.0 | 0.0 | 0.00 | 0.00 | 0.00 | 55 | 1014.4 | |
| 20260905145025 | 28 | 0.0 | 0.0 | 0.00 | 0.00 | 0.00 | 56 | 1014.6 | |
| 20260905144022 | 28 | 0.0 | 0.0 | 0.00 | 0.00 | 0.00 | 55 | 1014.6 | |
| 20260905143019 | 27 | 0.0 | 0.0 | 0.00 | 0.00 | 0.00 | 56 | 1014.6 | |
| 20260905142015 | 27 | 0.0 | 0.0 | 0.00 | 0.00 | 0.00 | 59 | 1014.4 | |
| 20260905141112 | 26 | 0.0 | 0.0 | 0.00 | 0.00 | 0.00 | 59 | 1014.3 | |
| 20260905140109 | 26 | 0.0 | 0.0 | 0.00 | 0.00 | 0.00 | 61 | 1014.3 | |
| 20260905135105 | 25 | 0.0 | 0.0 | 0.00 | 0.00 | 0.00 | 62 | 1014.4 | |
| 20260905134102 | 25 | 0.0 | 0.0 | 0.00 | 0.00 | 0.00 | 63 | 1014.4 | |
| 20260905133059 | 24 | 0.0 | 0.0 | 0.00 | 0.00 | 0.00 | 64 | 1014.3 | |
| 20260905132055 | 23 | 0.0 | 0.0 | 0.00 | 0.00 | 0.00 | 65 | 1014.3 | |
| 20260905131052 | 23 | 0.0 | 0.0 | 0.00 | 0.00 | 0.00 | 66 | 1014.5 | |
| 20260905130108 | 23 | 0.0 | 0.0 | 0.00 | 0.00 | 0.00 | 72 | 1014.5 | |
| 20260905125125 | 22 | 0.0 | 0.0 | 0.00 | 0.00 | 0.00 | 75 | 1014.6 | |
| 20260905124041 | 22 | 0.0 | 0.0 | 0.00 | 0.00 | 0.00 | 74 | 1014.6 | |
| 20260905123038 | 22 | 0.0 | 0.0 | 0.00 | 0.00 | 0.00 | 79 | 1014.6 | |
| 20260905122034 | 22 | 0.0 | 0.0 | 0.00 | 0.00 | 0.00 | 84 | 1014.7 | |
| 20260905121111 | 22 | 0.0 | 0.0 | 0.00 | 0.00 | 0.00 | 85 | 1014.5 | |
| 20260905120028 | 22 | 0.0 | 0.0 | 0.00 | 0.00 | 0.00 | 85 | 1014.5 | |
| 20260905115024 | 22 | 0.0 | 0.0 | 0.00 | 0.00 | 0.00 | 85 | 1014.2 | |
| 20260905114021 | 22 | 0.0 | 0.0 | 0.00 | 0.00 | 0.00 | 86 | 1014.1 | |
| 20260905113017 | 22 | 0.0 | 0.0 | 0.00 | 0.00 | 0.00 | 86 | 1014.0 | |
| 20260905112134 | 22 | 0.0 | 0.0 | 0.00 | 0.00 | 0.00 | 86 | 1014.0 | |
| 20260905111111 | 22 | 0.0 | 0.0 | 0.00 | 0.00 | 0.00 | 87 | 1013.9 | |
| 20260905110108 | 22 | 0.0 | 0.0 | 0.00 | 0.00 | 0.00 | 86 | 1013.9 |